Location: Atlanta
(33.7490°N, 84.3880°W)
Time: 05:27:25
(UTC-05:00)

Daily predictions for brighter satellites

Satellite Brightness Start Highest point End
(mag) Time Altitude Azimuth Time Altitude Azimuth Time Altitude Azimuth
Cosmos 2278 Rocket 4.1 04:02:21 24° ENE 04:02:21 24° ENE 04:06:29 10° ESE
Atlas Centaur 2 3.1 04:25:37 68° SSE 04:25:37 68° SSE 04:33:53 10° E
Hubble Space Telescope 3.8 04:28:50 12° SE 04:28:50 12° SE 04:29:26 10° ESE
COSMOS 2455 4.4 04:34:27 25° SSE 04:34:27 25° SSE 04:36:51 10° SSE
Cosmos 2237 Rocket 3.8 04:38:45 25° NNE 04:38:45 25° NNE 04:41:01 10° NNE
Lacrosse 5 rocket 4.1 04:33:37 15° SE 04:35:21 18° ESE 04:38:31 10° ENE
Cosmos 2333 Rocket 4.5 04:40:56 13° N 04:40:56 13° N 04:41:30 10° N
ASTRO E2 4.3 04:59:21 31° SE 04:59:21 31° SE 05:01:41 10° ESE
Cosmos 2061 Rocket 4.0 04:57:46 10° N 05:04:15 88° E 05:10:40 10° S
SL-16 R/B 2.3 05:03:12 10° SSW 05:08:48 72° ESE 05:14:28 10° NNE
IRS-P2 Rocket 4.5 05:14:19 10° NNE 05:19:36 90° WNW 05:24:48 10° SSW
Cosmos 1486 Rocket 4.2 05:18:19 20° N 05:22:02 71° ENE 05:27:20 10° SSE
Meteor 2-10 Rocket 3.7 05:19:33 29° NNW 05:22:31 66° W 05:28:16 10° S
Cosmos 2016 Rocket 3.8 05:22:13 10° N 05:28:20 73° W 05:34:23 10° S
CZ-4B R/B 3.5 05:28:03 10° N 05:33:23 44° WNW 05:38:41 10° SW
Cosmos 1933 Rocket 3.4 05:29:17 10° S 05:33:37 90° NNE 05:38:00 10° N
Cosmos 2242 Rocket 3.5 05:31:12 14° N 05:34:58 89° WSW 05:39:21 10° S
Cosmos 1892 2.5 05:32:06 10° SSW 05:35:52 69° W 05:39:40 10° N
COSMO-SKYMED 1 3.7 05:32:02 10° SE 05:36:08 43° ENE 05:40:15 10° N
Cosmos 2297 4.1 05:30:28 10° NNW 05:36:10 63° ENE 05:41:48 10° SSE
DELTA 2 R/B (1) 4.1 05:35:12 35° NW 05:36:58 46° N 05:42:20 10° ENE
CZ-2C R/B 4.1 05:35:36 10° NNE 05:40:21 36° E 05:45:00 10° SSE
ISS -3.5 05:42:08 48° N 05:42:45 60° NE 05:45:56 10° ESE
Cosmos 2278 Rocket 2.6 05:44:17 31° WNW 05:46:06 39° WSW 05:51:18 10° S
CZ-3B R/B 2.8 05:48:40 10° SW 05:53:29 75° SE 05:55:28 10° NE
Cosmos 1437 2.9 05:53:33 45° WNW 05:53:50 46° W 05:56:53 10° S
MTI 3.6 05:51:27 10° S 05:54:38 76° W 05:56:54 18° NNW
USA 116 4.4 05:50:17 10° S 05:55:16 59° W 06:00:34 10° NNW
USA 215 3.4 05:49:32 10° NE 05:56:06 79° SE 06:02:37 10° SW
Cosmos 1864 Rocket 4.5 05:50:12 10° NNW 05:56:23 61° W 06:02:28 10° S
EO 1 Del DPAF 3.2 05:54:24 10° SSE 05:58:14 88° ENE 06:02:05 10° NNW
Meteor 2-12 Rocket 4.4 05:53:18 10° NNW 05:59:16 64° W 06:05:13 10° S
Cosmos 1862 Rocket 3.6 05:55:02 10° NNW 05:59:26 60° W 06:03:49 10° S
Cosmos 1933 4.0 05:58:43 28° WNW 05:59:42 31° W 06:03:16 10° SSW
Cosmos 1340 3.8 06:00:21 24° WSW 06:00:21 24° WSW 06:02:53 10° SSW
Meteor 1-28 Rocket 3.7 05:58:03 10° SSW 06:01:34 38° W 06:03:43 20° NW
OAO 1 Rocket 4.4 06:00:26 20° W 06:04:09 89° N 06:09:33 10° E
SKYMED 3 4.5 06:01:43 10° S 06:06:02 80° W 06:10:23 10° NNW
Hubble Space Telescope 2.1 06:04:12 12° SW 06:07:35 33° S 06:11:19 10° ESE
Cosmos 1408 2.7 06:05:19 10° S 06:09:02 82° E 06:12:47 10° N
Landsat 4 4.4 06:06:39 10° SSW 06:09:59 32° W 06:12:29 15° NW
Lacrosse 5 rocket 1.8 06:09:48 10° WSW 06:14:15 49° NW 06:18:48 10° NNE
Atlas Centaur 2 3.3 06:08:15 15° W 06:15:14 66° S 06:23:39 10° ESE
Intercosmos 25 3.8 06:13:41 10° N 06:16:59 62° E 06:21:26 10° SSE
Cosmos 2233 Rocket 3.9 06:12:46 10° NNW 06:18:50 65° W 06:24:53 10° S
Delta 2 Rocket 3.5 06:16:31 18° WNW 06:19:39 72° N 06:24:27 10° E
Cosmos 2237 Rocket 4.0 06:20:39 11° NW 06:20:39 11° NW 06:21:31 10° NW
Cosmos 1943 4.4 06:15:22 10° S 06:20:47 48° ESE 06:26:14 10° NNE
Meteor 2-3 Rocket 4.2 06:16:40 10° SW 06:22:02 39° WNW 06:27:23 10° N
SKYMED 2 3.8 06:19:58 10° S 06:24:08 47° W 06:28:19 10° NNW
Cosmos 1992 Rocket 4.4 06:20:11 10° SW 06:25:05 40° WNW 06:30:00 10° N
Okean-O 3.4 06:25:21 10° NNW 06:29:09 29° WNW 06:32:56 10° SW
Cosmos 2221 Rocket 4.1 06:28:05 10° N 06:32:32 67° E 06:36:59 10° SSE
Okean 1-7 3.3 06:28:40 10° N 06:33:04 75° E 06:37:24 10° S
DEBRIS 2.6 06:30:49 10° NW 06:33:37 43° NE 06:35:39 10° ESE
PSLV R/B 3.5 06:31:50 11° W 06:34:49 46° NNW 06:37:55 10° NE
IDEFIX/ARIANE 42P 2.8 06:29:54 10° N 06:34:49 46° WNW 06:39:44 10° SW
CSL-04 Rocket 4.5 06:30:20 10° NNE 06:35:44 59° E 06:41:11 10° S
ASTRO E2 4.4 06:34:49 10° WSW 06:37:59 23° SSW 06:41:08 10° SSE
Cosmos 1484 Rocket 3.7 06:34:07 10° NNE 06:38:05 56° E 06:42:01 10° S
Thor Agena Rocket 3.7 06:34:27 10° SSE 06:39:34 79° ENE 06:44:39 10° N
Cosmos 1825 2.6 06:36:43 10° SSW 06:40:14 38° W 06:43:48 10° N
ATLAS 5 CENTAUR R/B 2.3 06:37:45 10° SSW 06:42:10 63° ESE 06:46:55 10° NE
Cosmos 1782 2.8 06:40:21 10° NNW 06:44:15 59° W 06:48:07 10° S
NOSS 3-1 (C) 4.5 06:40:39 10° NNW 06:48:28 72° ENE 06:56:59 10° SE
Aureole 3 3.6 06:47:14 10° S 06:50:39 57° E 06:53:39 10° NNE
